Total_Precipitation_Accumulation
0.09 0.13 0.34 0.46 0.48 0.39 0.29 0.22 0.21 0.21 0.21 0.20 0.20 0.20 0.18 0.19 0.18 0.17 0.19 0.21 0.23 0.28 0.35 0.38 0.41 0.54 0.53 0.38 0.26 0.17 0.13 0.10 0.09 0.08 0.08 0.10 0.13 0.15 0.14 0.13 0.15 0.20 0.25
0.08 0.15 0.34 0.50 0.56 0.49 0.39 0.31 0.22 0.20 0.21 0.23 0.24 0.24 0.23 0.22 0.22 0.23 0.26 0.28 0.31 0.35 0.38 0.42 0.45 0.50 0.48 0.35 0.21 0.10 0.07 0.05 0.03 0.03 0.02 0.03 0.08 0.12 0.09 0.08 0.11 0.20 0.23
0.10 0.18 0.35 0.52 0.62 0.57 0.49 0.40 0.31 0.25 0.25 0.28 0.31 0.30 0.30 0.28 0.28 0.29 0.32 0.34 0.36 0.36 0.37 0.44 0.44 0.42 0.38 0.30 0.18 0.10 0.07 0.05 0.04 0.02 0.02 0.04 0.10 0.14 0.11 0.12 0.16 0.20 0.22
0.13 0.22 0.35 0.50 0.65 0.64 0.58 0.49 0.43 0.40 0.36 0.35 0.38 0.39 0.39 0.35 0.33 0.35 0.35 0.35 0.35 0.31 0.32 0.34 0.30 0.28 0.19 0.16 0.14 0.10 0.08 0.05 0.04 0.03 0.04 0.06 0.12 0.20 0.20 0.19 0.21 0.23 0.23
0.24 0.29 0.44 0.55 0.67 0.69 0.63 0.60 0.55 0.51 0.49 0.47 0.45 0.45 0.48 0.46 0.41 0.39 0.37 0.34 0.30 0.26 0.23 0.24 0.20 0.16 0.12 0.09 0.09 0.09 0.07 0.06 0.04 0.04 0.04 0.06 0.11 0.23 0.22 0.19 0.19 0.20 0.23
0.35 0.39 0.52 0.63 0.72 0.75 0.68 0.63 0.60 0.58 0.56 0.54 0.49 0.48 0.52 0.55 0.52 0.43 0.38 0.32 0.26 0.23 0.20 0.18 0.15 0.13 0.11 0.09 0.07 0.08 0.07 0.05 0.04 0.04 0.05 0.07 0.10 0.20 0.20 0.17 0.17 0.19 0.22
0.47 0.52 0.64 0.77 0.89 0.94 0.86 0.74 0.65 0.62 0.60 0.59 0.53 0.51 0.54 0.59 0.60 0.49 0.39 0.31 0.24 0.21 0.18 0.15 0.12 0.12 0.11 0.10 0.09 0.07 0.06 0.05 0.04 0.04 0.06 0.08 0.11 0.21 0.20 0.17 0.17 0.18 0.19
0.60 0.67 0.80 0.94 1.00 1.08 1.01 0.87 0.79 0.73 0.68 0.63 0.62 0.63 0.61 0.61 0.63 0.52 0.38 0.31 0.28 0.22 0.19 0.17 0.14 0.12 0.11 0.11 0.10 0.08 0.06 0.04 0.03 0.03 0.04 0.06 0.10 0.17 0.18 0.16 0.16 0.17 0.16
0.82 0.90 1.00 1.06 1.08 1.20 1.08 0.92 0.87 0.83 0.79 0.72 0.68 0.69 0.64 0.61 0.60 0.50 0.35 0.30 0.29 0.27 0.22 0.20 0.18 0.16 0.14 0.13 0.11 0.09 0.07 0.03 0.02 0.02 0.03 0.05 0.08 0.13 0.15 0.16 0.17 0.19 0.18
1.04 1.10 1.12 1.13 1.15 1.26 1.22 1.02 0.89 0.82 0.80 0.79 0.74 0.67 0.56 0.52 0.55 0.50 0.33 0.30 0.29 0.27 0.23 0.21 0.18 0.18 0.16 0.13 0.10 0.08 0.06 0.05 0.04 0.04 0.04 0.05 0.08 0.12 0.14 0.16 0.18 0.20 0.20
1.32 1.32 1.30 1.24 1.18 1.23 1.27 1.10 1.00 0.91 0.86 0.81 0.77 0.65 0.56 0.55 0.54 0.48 0.32 0.23 0.26 0.26 0.23 0.22 0.22 0.20 0.17 0.13 0.10 0.07 0.05 0.05 0.05 0.05 0.06 0.05 0.08 0.12 0.14 0.16 0.16 0.17 0.17
1.43 1.46 1.44 1.33 1.31 1.30 1.29 1.24 1.20 1.06 0.96 0.88 0.78 0.74 0.66 0.61 0.59 0.51 0.40 0.25 0.23 0.25 0.25 0.25 0.24 0.24 0.19 0.14 0.11 0.09 0.07 0.05 0.06 0.06 0.05 0.05 0.09 0.12 0.15 0.16 0.14 0.14 0.14
1.60 1.62 1.58 1.48 1.49 1.40 1.32 1.24 1.25 1.13 1.05 0.98 0.89 0.84 0.78 0.71 0.62 0.63 0.55 0.41 0.34 0.26 0.27 0.26 0.26 0.21 0.18 0.17 0.16 0.11 0.09 0.08 0.07 0.06 0.04 0.05 0.08 0.13 0.18 0.21 0.18 0.16 0.16
1.88 1.90 1.75 1.65 1.62 1.56 1.40 1.21 1.12 1.10 1.03 0.96 0.88 0.90 0.88 0.79 0.66 0.59 0.57 0.47 0.40 0.31 0.29 0.28 0.24 0.21 0.18 0.19 0.19 0.15 0.12 0.09 0.07 0.07 0.04 0.04 0.05 0.11 0.17 0.21 0.22 0.21 0.22
2.12 2.13 2.05 1.83 1.70 1.60 1.51 1.37 1.13 1.01 0.92 0.91 0.89 0.86 0.84 0.76 0.64 0.58 0.59 0.57 0.49 0.39 0.34 0.31 0.28 0.24 0.21 0.20 0.20 0.17 0.15 0.13 0.11 0.09 0.06 0.04 0.03 0.06 0.13 0.18 0.23 0.26 0.29
2.28 2.37 2.36 2.09 1.82 1.62 1.51 1.44 1.27 1.06 0.94 0.90 0.88 0.85 0.83 0.77 0.68 0.62 0.56 0.58 0.55 0.50 0.45 0.41 0.35 0.34 0.31 0.27 0.23 0.20 0.20 0.19 0.17 0.14 0.11 0.08 0.06 0.06 0.09 0.16 0.27 0.35 0.38
2.36 2.53 2.57 2.43 2.12 1.73 1.54 1.44 1.34 1.19 1.08 0.98 0.86 0.82 0.83 0.82 0.77 0.72 0.65 0.60 0.58 0.57 0.55 0.53 0.50 0.47 0.41 0.34 0.28 0.26 0.23 0.20 0.17 0.17 0.15 0.14 0.12 0.09 0.08 0.14 0.24 0.35 0.40
2.39 2.53 2.60 2.56 2.39 2.01 1.65 1.51 1.39 1.28 1.19 1.09 1.02 0.96 0.89 0.86 0.85 0.84 0.73 0.64 0.61 0.64 0.62 0.56 0.52 0.51 0.43 0.38 0.33 0.28 0.24 0.21 0.19 0.18 0.17 0.14 0.14 0.13 0.11 0.11 0.17 0.26 0.34
2.24 2.45 2.69 2.62 2.51 2.29 1.98 1.74 1.60 1.43 1.32 1.22 1.07 1.00 1.02 0.99 0.95 0.93 0.78 0.68 0.65 0.65 0.63 0.62 0.58 0.54 0.46 0.41 0.38 0.34 0.30 0.25 0.22 0.20 0.18 0.15 0.14 0.14 0.13 0.12 0.13 0.15 0.22
2.06 2.32 2.53 2.77 2.70 2.66 2.54 2.20 1.87 1.67 1.47 1.35 1.18 1.04 1.02 1.03 1.02 1.03 0.92 0.80 0.77 0.71 0.63 0.60 0.60 0.63 0.60 0.55 0.51 0.45 0.39 0.33 0.28 0.24 0.21 0.18 0.15 0.13 0.13 0.13 0.13 0.12 0.16
1.89 2.13 2.27 2.48 2.64 2.69 2.58 2.24 1.87 1.64 1.58 1.52 1.37 1.23 1.14 1.09 1.07 1.06 1.04 0.95 0.87 0.79 0.71 0.66 0.64 0.65 0.69 0.74 0.74 0.62 0.50 0.42 0.34 0.27 0.24 0.21 0.18 0.16 0.16 0.17 0.19 0.19 0.19
1.65 1.80 2.05 2.14 2.36 2.41 2.34 2.27 2.08 1.97 1.87 1.76 1.65 1.45 1.31 1.25 1.16 1.09 1.04 1.03 0.95 0.88 0.87 0.88 0.85 0.78 0.73 0.78 0.85 0.83 0.68 0.55 0.41 0.31 0.26 0.24 0.23 0.24 0.22 0.21 0.21 0.23 0.25
1.36 1.63 1.76 1.84 2.06 2.27 2.34 2.45 2.52 2.46 2.15 1.89 1.72 1.63 1.50 1.43 1.33 1.21 1.12 1.11 1.08 0.97 0.91 0.95 1.00 1.01 1.00 0.99 0.97 1.09 0.99 0.73 0.54 0.39 0.32 0.29 0.27 0.30 0.29 0.28 0.27 0.28 0.30
1.03 1.36 1.69 1.84 1.97 2.15 2.41 2.40 2.33 2.20 1.99 1.73 1.71 1.76 1.72 1.61 1.51 1.36 1.28 1.22 1.20 1.16 1.08 1.10 1.12 1.17 1.22 1.20 1.15 1.09 1.05 0.91 0.85 0.64 0.41 0.33 0.31 0.29 0.30 0.32 0.31 0.29 0.29
0.87 1.11 1.40 1.66 1.91 2.11 2.22 2.26 2.30 2.15 1.96 1.91 1.83 1.80 1.70 1.59 1.54 1.46 1.41 1.38 1.35 1.32 1.31 1.35 1.34 1.33 1.32 1.32 1.27 1.23 1.22 1.11 1.00 0.95 0.70 0.50 0.46 0.40 0.36 0.34 0.33 0.35 0.36
0.75 0.90 1.15 1.41 1.56 1.77 1.99 2.08 2.11 2.10 2.09 2.04 1.85 1.76 1.76 1.72 1.64 1.54 1.52 1.52 1.53 1.51 1.47 1.45 1.47 1.50 1.50 1.46 1.44 1.36 1.30 1.25 1.12 1.13 1.03 0.78 0.70 0.61 0.53 0.48 0.45 0.45 0.45